Kaktovik, AK

2:54 PM AKST on December 03, 2016 (GMT -0900)
Barter Island LRRS

Weather History for PABA - April, 2013

Change the Weather History Date:

Friday, April 5, 2013

  Actual Average Record
Temperature  
Mean Temperature -14 °F -  
Max Temperature -22 °F 6 °F 21 °F (1998)
Min Temperature -20 °F -7 °F -25 °F (2009)
Degree Days  
Heating Degree Days 79    
Moisture  
Dew Point -19 °F    
Average Humidity 78    
Maximum Humidity 86    
Minimum Humidity 68    
Precipitation  
Precipitation 0.00 in - - ()
Sea Level Pressure  
Sea Level Pressure 30.56 in    
Wind  
Wind Speed 4 mph (North)    
Max Wind Speed 8 mph    
Max Gust Speed -    
Visibility 8 miles    
Events Snow    
Averages and records for this station are not official NWS values.
T = Trace of Precipitation, MM = Missing Value Source: NWS Daily Summary

Daily Weather History Graph

Daily Weather History Graph

Search for Another Location

Airport or City:

Trip Planner

Search our weather history database for the weather conditions in past years. The results will help you decide how hot, cold, wet, or windy it might be!

Date:

Astronomy

Apr. 05, 2013 Rise Set
Actual Time 6:15 AM AKDT 9:00 PM AKDT
Civil Twilight 5:05 AM AKDT 10:11 PM AKDT
Nautical Twilight 3:10 AM AKDT 12:13 AM AKDT
Astronomical Twilight Sun does not rise Sun does not rise
Moon 5:57 AM AKDT (4/5) 2:15 PM AKDT (4/5)
Length of Visible Light 17h 06m
Length of Day
14h 45m
Waning Crescent, 22% of the Moon is Illuminated
Apr 5
Waning Crescent
Apr 10
New
Apr 18
First Quarter
Apr 25
Full
May 2
Last Quarter

Hourly Weather History & Observations

Time (AKDT) Temp. Windchill Dew Point Humidity Pressure Visibility Wind Dir Wind Speed Gust Speed Precip Events Conditions
12:01 AM -11.9 °F -23.8 °F -15.0 °F 86% 30.66 in 9.0 mi North 4.6 mph - 0.00 in   Unknown
1:01 AM -13.0 °F -25.1 °F -16.1 °F 86% 30.65 in 10.0 mi North 4.6 mph - 0.00 in   Unknown
2:01 AM -14.1 °F -28.3 °F -18.0 °F 82% 30.64 in 10.0 mi North 5.8 mph - 0.00 in   Unknown
3:01 AM -15.0 °F -27.4 °F -18.9 °F 82% 30.63 in 10.0 mi North 4.6 mph - N/A   Unknown
4:01 AM -16.1 °F - -20.0 °F 82% 30.63 in 10.0 mi Calm Calm - N/A   Unknown
5:01 AM -17.0 °F - -20.9 °F 82% 30.62 in 7.0 mi Calm Calm - 0.00 in Snow Light Snow
6:01 AM -18.9 °F -29.5 °F -24.0 °F 78% 30.61 in 5.0 mi WNW 3.5 mph - 0.00 in Snow Light Snow
8:01 AM -18.0 °F -30.9 °F -23.1 °F 78% 30.59 in 8.0 mi WNW 4.6 mph - N/A Snow Light Snow
8:17 AM -16.6 °F -26.8 °F -22.0 °F 76% 30.59 in 1.8 mi NW 3.5 mph - 0.00 in Snow Light Snow
8:26 AM -16.6 °F -29.3 °F -20.2 °F 84% 30.58 in 2.5 mi NNW 4.6 mph - 0.00 in Snow Light Snow
8:33 AM -16.6 °F -31.3 °F -20.2 °F 84% 30.58 in 4.0 mi NNW 5.8 mph - 0.00 in Snow Light Snow
9:01 AM -15.0 °F -27.4 °F -18.9 °F 82% 30.58 in 7.0 mi NNW 4.6 mph - 0.00 in Snow Light Snow
10:01 AM -11.9 °F - -17.0 °F 78% 30.57 in 6.0 mi Calm Calm - N/A Snow Light Snow
11:01 AM -13.0 °F -22.7 °F -18.0 °F 78% 30.57 in 4.0 mi NW 3.5 mph - 0.00 in Snow Light Snow
12:01 PM -9.0 °F -18.2 °F -15.0 °F 75% 30.56 in 10.0 mi West 3.5 mph - 0.00 in   Unknown
1:01 PM -9.0 °F -18.2 °F -15.0 °F 75% 30.55 in 10.0 mi West 3.5 mph - N/A   Unknown
2:01 PM -9.9 °F -21.5 °F -16.1 °F 74% 30.54 in 7.0 mi North 4.6 mph - 0.00 in Snow Light Snow
3:01 PM -9.0 °F -23.8 °F -15.0 °F 75% 30.53 in 8.0 mi NE 6.9 mph - 0.00 in   Unknown
4:01 PM -8.0 °F -22.5 °F -15.0 °F 71% 30.52 in 10.0 mi ENE 6.9 mph - 0.00 in   Unknown
5:01 PM -9.9 °F -26.3 °F -16.1 °F 74% 30.51 in 6.0 mi ENE 8.1 mph - 0.00 in Snow Light Snow
6:01 PM -9.0 °F -25.2 °F -16.1 °F 71% 30.50 in 3.0 mi ENE 8.1 mph - 0.00 in Snow Light Snow
7:01 PM -9.9 °F -24.9 °F -18.0 °F 68% 30.50 in 10.0 mi East 6.9 mph - N/A   Unknown
8:01 PM -14.1 °F -31.3 °F -18.9 °F 79% 30.49 in 10.0 mi East 8.1 mph - N/A   Unknown
9:01 PM -17.0 °F -34.8 °F -20.9 °F 82% 30.48 in 10.0 mi East 8.1 mph - N/A   Unknown
10:01 PM -20.0 °F -30.7 °F -25.1 °F 78% 30.47 in 9.0 mi ESE 3.5 mph - 0.00 in   Unknown
11:01 PM -20.9 °F - -25.1 °F 81% 30.47 in 10.0 mi Calm Calm - N/A   Unknown